This is the latest recevied weather packets stored in our database for station/object KD8DLP-13. If no packets are shown the sender has not sent any weather packets the latest 10 day(s).
| Time | Temp. | Humidity | Pressure | Rain* | Wind** | Luminosity | Snow |
|---|---|---|---|---|---|---|---|
| 1777488329 | 7.78° C | 96% | 1013.6 hPa | 1.27 mm | - | 128 W/m² | - |
| 1777488027 | 7.78° C | 96% | 1013.5 hPa | 0 mm | - | 105 W/m² | - |
| 1777487724 | 7.78° C | 96% | 1013.4 hPa | 1.78 mm | - | 113 W/m² | - |
| 1777487422 | 7.78° C | 96% | 1013.6 hPa | 1.78 mm | - | 112 W/m² | - |
| 1777487119 | 7.78° C | 96% | 1013.4 hPa | 1.78 mm | - | 106 W/m² | - |
| 1777486815 | 7.78° C | 96% | 1013.5 hPa | 0 mm | - | 91 W/m² | - |
| 1777486512 | 8.33° C | 96% | 1013.3 hPa | 0 mm | - | 88 W/m² | - |
| 1777486209 | 8.33° C | 96% | 1013.3 hPa | 1.27 mm | - | 80 W/m² | - |
| 1777485907 | 8.33° C | 96% | 1013.4 hPa | 1.27 mm | - | 128 W/m² | - |
| 1777485603 | 8.33° C | 96% | 1013.2 hPa | 1.27 mm | - | 127 W/m² | - |
| 1777485298 | 8.33° C | 96% | 1013.4 hPa | 0 mm | - | 170 W/m² | - |
| 1777484995 | 8.33° C | 96% | 1013.3 hPa | 1.78 mm | - | 144 W/m² | - |
| 1777484692 | 8.33° C | 96% | 1013.3 hPa | 1.78 mm | - | 159 W/m² | - |
| 1777484389 | 8.33° C | 96% | 1013.5 hPa | 1.27 mm | - | 123 W/m² | - |
| 1777484084 | 8.33° C | 96% | 1013.4 hPa | 1.27 mm | - | 158 W/m² | - |
| 1777483781 | 8.33° C | 96% | 1013.5 hPa | 1.78 mm | - | 132 W/m² | - |
| 1777483478 | 8.33° C | 96% | 1013.6 hPa | 1.78 mm | - | 133 W/m² | - |
| 1777483172 | 8.33° C | 96% | 1013.5 hPa | 1.78 mm | - | 113 W/m² | - |
| 1777482869 | 8.33° C | 96% | 1013.7 hPa | 1.78 mm | - | 96 W/m² | - |
| 1777482565 | 8.33° C | 95% | 1013.7 hPa | 3.05 mm | - | 117 W/m² | - |
| 1777482263 | 8.33° C | 95% | 1013.5 hPa | 3.05 mm | - | 127 W/m² | - |
| 1777481960 | 8.33° C | 95% | 1013.7 hPa | 3.05 mm | - | 95 W/m² | - |
| 1777481658 | 8.33° C | 95% | 1013.8 hPa | 4.32 mm | - | 80 W/m² | - |
| 1777481354 | 8.33° C | 95% | 1013.7 hPa | 3.05 mm | - | 55 W/m² | - |
| 1777481051 | 8.89° C | 95% | 1013.7 hPa | 3.05 mm | - | 42 W/m² | - |
* Rain latest hour (hover to see other rain measurements)
** Current wind speed in m/s (hover to see current wind gust speed)